EW9749 Weather Reports


Display with metric or nautical units.
time (UTC)temp
F
wind
direction
speed
MPH
gust
MPH
rain 1hr
in
rain 24hr
in
rain mn
in
humidity
%
barometer
mb
20260507131548 49 88 2.0 7.0 0.00 0.00 0.00 64 1009.6
20260507130059 48 64 3.0 7.0 0.00 0.00 0.00 66 1009.5
20260507124607 47 90 2.0 6.0 0.00 0.00 0.00 67 1009.3
20260507123102 47 93 1.0 4.0 0.00 0.00 0.00 66 1009.3
20260507121556 47 86 1.0 5.0 0.00 0.00 0.00 67 1009.5
20260507120040 47 101 0.0 3.0 0.00 0.00 0.00 65 1009.4
20260507114541 47 101 0.0 4.0 0.00 0.00 0.00 63 1009.4
20260507113047 47 108 0.0 3.0 0.00 0.00 0.00 60 1009.2
20260507111547 47 0 0.0 1.0 0.00 0.00 0.00 62 1008.9
20260507110046 47 0 0.0 1.0 0.00 0.00 0.00 63 1008.9
20260507104544 47 0 0.0 2.0 0.00 0.00 0.00 66 1008.9
20260507103042 47 0 0.0 1.0 0.00 0.00 0.00 64 1008.9
20260507101548 47 113 0.0 1.0 0.00 0.00 0.00 64 1008.7
20260507100056 47 0 0.0 2.0 0.00 0.00 0.00 60 1008.8
20260507094548 48 0 0.0 2.0 0.00 0.00 0.00 51 1008.8
20260507093046 48 0 0.0 0.0 0.00 0.00 0.00 49 1008.7
20260507091543 48 0 0.0 0.0 0.00 0.00 0.00 48 1008.2
20260507090047 48 0 0.0 0.0 0.00 0.00 0.00 49 1008.2
20260507084547 48 0 0.0 0.0 0.00 0.00 0.00 48 1008.3
20260507083105 48 0 0.0 0.0 0.00 0.00 0.00 49 1008.2
20260507081557 49 0 0.0 2.0 0.00 0.00 0.00 49 1007.9
20260507080044 49 0 0.0 1.0 0.00 0.00 0.00 51 1007.6
20260507074547 49 0 0.0 1.0 0.00 0.00 0.00 50 1007.7
20260507073053 49 0 0.0 3.0 0.00 0.00 0.00 49 1007.6
20260507071542 50 158 0.0 2.0 0.00 0.00 0.00 47 1007.5
20260507070043 50 0 0.0 6.0 0.00 0.00 0.00 49 1007.3
20260507064542 51 356 4.0 8.0 0.00 0.00 0.00 46 1006.7
20260507063043 51 257 3.0 6.0 0.00 0.00 0.00 37 1007.0
20260507061547 51 238 1.0 7.0 0.00 0.00 0.00 37 1007.4
20260507060048 52 212 3.0 8.0 0.00 0.00 0.00 37 1007.5
20260507054545 53 228 2.0 8.0 0.00 0.00 0.00 33 1007.5
20260507053043 53 281 4.0 7.0 0.00 0.00 0.00 32 1007.3
20260507051543 53 0 1.0 7.0 0.00 0.00 0.00 33 1007.7
20260507050041 54 211 1.0 5.0 0.00 0.00 0.00 30 1008.1
20260507044542 54 268 2.0 6.0 0.00 0.00 0.00 30 1007.9
20260507043043 54 283 3.0 9.0 0.00 0.00 0.00 30 1007.7
20260507041546 54 248 3.0 8.0 0.00 0.00 0.00 30 1008.1
20260507040041 55 272 3.0 9.0 0.00 0.00 0.00 30 1008.0
20260507034538 55 238 4.0 10.0 0.00 0.00 0.00 31 1007.7
20260507033047 56 216 4.0 8.0 0.00 0.00 0.00 30 1006.5
20260507031544 56 314 4.0 9.0 0.00 0.00 0.00 29 1006.5
20260507030041 57 274 3.0 11.0 0.00 0.00 0.00 28 1006.7
20260507024601 57 238 4.0 12.0 0.00 0.00 0.00 28 1006.5
20260507023048 58 238 5.0 10.0 0.00 0.00 0.00 27 1006.4
20260507021547 60 255 4.0 10.0 0.00 0.00 0.00 25 1006.7
20260507014549 62 231 3.0 9.0 0.00 0.00 0.00 24 1006.2
20260507013050 62 230 4.0 11.0 0.00 0.00 0.00 23 1006.2
20260507011548 63 201 4.0 10.0 0.00 0.00 0.00 23 1006.2
20260507010047 64 250 2.0 9.0 0.00 0.00 0.00 23 1006.1
20260507004546 64 179 4.0 9.0 0.00 0.00 0.00 23 1006.0
20260507003043 64 217 4.0 10.0 0.00 0.00 0.00 22 1006.4
20260507001553 65 188 3.0 11.0 0.00 0.00 0.00 22 1006.2
20260507000050 66 250 2.0 9.0 0.00 0.00 0.00 23 1006.2
20260506234553 67 185 2.0 8.0 0.00 0.00 0.00 22 1006.2
20260506233046 67 216 2.0 5.0 0.00 0.00 0.00 23 1006.5
20260506231555 67 174 1.0 6.0 0.00 0.00 0.00 23 1006.7
20260506230054 67 209 3.0 7.0 0.00 0.00 0.00 23 1006.8
20260506224541 66 319 1.0 4.0 0.00 0.00 0.00 24 1007.0
20260506223053 67 140 1.0 5.0 0.00 0.00 0.00 24 1007.1
20260506221548 66 146 0.0 3.0 0.00 0.00 0.00 24 1007.3
20260506220049 65 174 1.0 4.0 0.00 0.00 0.00 23 1007.5
20260506214546 65 41 2.0 4.0 0.00 0.00 0.00 25 1007.7
20260506213100 64 234 2.0 5.0 0.00 0.00 0.00 24 1007.9
20260506211556 65 98 0.0 7.0 0.00 0.00 0.00 24 1008.1
20260506210048 64 240 1.0 4.0 0.00 0.00 0.00 23 1008.4
20260506204555 64 106 3.0 9.0 0.00 0.00 0.00 22 1008.7
20260506203049 63 140 1.0 5.0 0.00 0.00 0.00 23 1008.8
20260506201557 63 97 2.0 6.0 0.00 0.00 0.00 24 1009.0
20260506200042 62 200 1.0 4.0 0.00 0.00 0.00 25 1009.2
20260506194554 63 268 1.0 6.0 0.00 0.00 0.00 24 1009.5
20260506193041 61 292 1.0 4.0 0.00 0.00 0.00 26 1009.8
20260506191548 61 324 1.0 9.0 0.00 0.00 0.00 27 1010.1
20260506190046 61 107 1.0 7.0 0.00 0.00 0.00 28 1010.5
20260506184551 59 264 2.0 6.0 0.00 0.00 0.00 26 1010.7
20260506183056 59 265 1.0 6.0 0.00 0.00 0.00 27 1010.9
20260506181540 58 68 2.0 8.0 0.00 0.00 0.00 28 1011.1
20260506180050 59 0 2.0 6.0 0.00 0.00 0.00 27 1011.3
20260506174547 57 347 2.0 6.0 0.00 0.00 0.00 27 1011.7
20260506173051 57 0 1.0 5.0 0.00 0.00 0.00 29 1011.9
20260506171544 56 86 2.0 6.0 0.00 0.00 0.00 30 1012.1
20260506164538 55 0 1.0 6.0 0.00 0.00 0.00 33 1012.7
20260506163058 53 99 1.0 7.0 0.00 0.00 0.00 35 1012.8
20260506161548 53 108 1.0 6.0 0.00 0.00 0.00 37 1013.0
20260506160046 51 103 1.0 6.0 0.00 0.00 0.00 37 1013.3
20260506154548 50 0 0.0 2.0 0.00 0.00 0.00 42 1013.5
20260506153046 48 0 1.0 2.0 0.00 0.00 0.00 40 1013.7
20260506151544 46 0 0.0 1.0 0.00 0.00 0.00 44 1013.9
20260506150048 46 191 0.0 2.0 0.00 0.00 0.00 42 1014.0
20260506144600 43 0 0.0 1.0 0.00 0.00 0.00 45 1014.2
20260506143045 42 0 0.0 1.0 0.00 0.00 0.00 46 1014.4
20260506141543 39 0 0.0 1.0 0.00 0.00 0.00 49 1014.6
20260506140045 38 94 0.0 1.0 0.00 0.00 0.00 51 1014.8
20260506134540 35 0 0.0 1.0 0.00 0.00 0.00 55 1014.9
20260506133050 33 0 0.0 2.0 0.00 0.00 0.00 58 1015.0